Flag for Honduras Weather past 2 weeks in Choloma, Honduras

Now
84 °F

Partly sunny.


Feels Like: 98 °F
Forecast: 77 / 86 °F
Wind: 12 mph from North

Location: La Mesa San Pedro Sula

Current Time: Aug 2, 2015 at 6:53:39 PM

Latest Report: Aug 2, 2015 at 6:00 PM


Visibility: N/A

Pressure: 29.83 "Hg

Humidity: 89%

Dew point: 81 °F

Location of CholomaLocation

Historic Weather in Choloma — Graph

°F

Choloma temperature yesterday

Maximum temperature yesterday: 93 °F (at 1:00 PM)
Minimum temperature yesterday: 73 °F (at 6:00 AM)
Average temperature yesterday: 85 °F

Past Weeks' High & Low Weather Summary

 TemperatureHumidityPressure
High95 °F (Jul 19, 2:00 PM)100% (Jul 19, 2:00 AM)30.04 "Hg (Jul 19, 2:00 AM)
Low73 °F (Jul 19, 4:00 AM)49% (Jul 31, 12:00 PM)29.80 "Hg (Aug 2, 2:00 PM)
Average85 °F81%29.93 "Hg
* Reported Jul 18 5:00 PM — Aug 2 5:00 PM, Choloma, Weather by CustomWeather, © 2015

Note: Actual official high and low records may vary slightly from our data, if they occured in-between our weather recording intervals... More about our weather records

Advertising

Choloma weather history for previous 24 hours

 ConditionsComfort  
Time TempWeatherWind HumidityBarometerVisibility
5:00 PM
Sun, Aug 2
86 °FPartly sunny.16 mph79%29.80 "HgN/A
4:00 PM90 °FThunderstorms. Scattered clouds.15 mph75%29.80 "HgN/A
3:00 PM93 °FScattered clouds.17 mph63%29.80 "HgN/A
2:00 PM95 °FScattered clouds.14 mph56%29.80 "HgN/A
1:00 PM95 °FScattered clouds.14 mph56%29.83 "HgN/A
12:00 PM91 °FScattered clouds.9 mph59%29.86 "HgN/A
11:00 AM91 °FScattered clouds.5 mph63%29.86 "HgN/A
10:01 AM90 °FPassing clouds.No wind67%29.89 "HgN/A
9:00 AM88 °FPassing clouds.No wind75%29.89 "HgN/A
8:00 AM84 °FScattered clouds.2 mph84%29.89 "HgN/A
7:00 AM79 °FScattered clouds.6 mph100%29.89 "HgN/A
12:00 AM79 °FPassing clouds.5 mph100%29.92 "HgN/A
11:00 PM
Sat, Aug 1
81 °FPassing clouds.5 mph94%29.95 "HgN/A
10:00 PM81 °FPassing clouds.No wind94%29.95 "HgN/A
9:00 PM81 °FPassing clouds.5 mph94%29.92 "HgN/A
8:00 PM82 °FPassing clouds.7 mph89%29.89 "HgN/A
7:00 PM82 °FPassing clouds.10 mph89%29.89 "HgN/A
6:00 PM84 °FScattered clouds.16 mph84%29.86 "HgN/A
Weather by CustomWeather, © 2015

See weather overviewHow to use our weather pages